Location: Ottawa
(45.4167°N, 75.7000°W)
Time: 19:28:13
(UTC-04:00)

Vanguard 3 - All Passes

Search period start: 17 July 2018 00:00
Search period end: 27 July 2018 00:00
Orbit: 508 x 3264 km, 33.3° (Epoch: 17 July)

Date Brightness Start Highest point End Pass type
(mag) Time Alt. Az. Time Alt. Az. Time Alt. Az.
17 Jul - 00:12:36 10° SW 00:14:58 13° SSW 00:17:00 10° S visible
17 Jul - 16:20:34 10° SSE 16:25:20 12° SSE 16:29:31 10° SE daylight
17 Jul - 18:27:54 10° SSW 18:38:26 26° SSE 18:45:30 10° ESE daylight
17 Jul - 20:41:34 10° WSW 20:50:47 33° S 20:56:28 10° ESE daylight
17 Jul - 22:56:26 10° WSW 23:01:55 22° SSW 23:05:47 10° SSE visible
18 Jul - 17:13:14 10° SSW 17:23:45 22° SSE 17:31:24 10° ESE daylight
18 Jul - 19:25:34 10° SW 19:36:41 34° S 19:43:35 10° ESE daylight
18 Jul - 21:40:28 10° WSW 21:48:33 31° SSW 21:53:39 10° SE visible
18 Jul - 23:56:24 10° WSW 23:59:01 13° SSW 00:01:13 10° S visible
19 Jul - 16:00:04 10° S 16:08:49 16° SSE 16:15:57 10° ESE daylight
19 Jul - 18:09:46 10° SW 18:22:10 31° SSE 18:30:15 10° ESE daylight
19 Jul - 20:24:14 10° WSW 20:34:45 37° S 20:41:06 10° ESE daylight
19 Jul - 22:39:45 10° WSW 22:45:59 23° SSW 22:50:15 10° SSE visible
20 Jul - 14:52:47 10° SE 14:53:48 10° SE 14:54:47 10° SE daylight
20 Jul - 16:54:37 10° SSW 17:07:18 27° SSE 17:16:17 10° ESE daylight
20 Jul - 19:07:53 10° SW 19:20:30 38° S 19:28:10 10° ESE daylight
20 Jul - 21:23:25 10° WSW 21:32:34 34° SSW 21:38:12 10° SE visible
20 Jul - 23:40:06 10° WSW 23:42:59 13° SW 23:45:25 10° S visible
21 Jul - 15:40:43 10° S 15:52:11 21° SSE 16:01:14 10° ESE daylight
21 Jul - 17:51:45 10° SW 18:05:48 36° SSE 18:14:49 10° ESE daylight
21 Jul - 20:06:51 10° WSW 20:18:39 40° S 20:25:38 10° ESE daylight
21 Jul - 22:22:58 10° WSW 22:29:57 24° SSW 22:34:40 10° SSE visible
22 Jul - 14:29:21 10° SSE 14:37:01 14° SE 14:43:50 10° ESE daylight
22 Jul - 16:36:15 10° SSW 16:50:42 31° SSE 17:00:53 10° ESE daylight
22 Jul - 18:50:12 10° WSW 19:04:12 42° S 19:12:40 10° ESE daylight
22 Jul - 21:06:16 10° WSW 21:16:28 35° SSW 21:22:40 10° SE visible
22 Jul - 23:23:43 10° WSW 23:26:53 13° SW 23:29:30 10° SSW visible
23 Jul - 15:21:53 10° SSW 15:35:24 25° SSE 15:46:00 10° ESE daylight
23 Jul - 17:33:49 10° SW 17:49:17 40° SSE 17:59:16 10° ESE daylight
23 Jul - 19:49:25 10° WSW 20:02:25 43° S 20:10:05 10° ESE daylight
23 Jul - 22:06:04 10° W 22:13:50 25° SSW 22:19:01 10° SSE visible
24 Jul - 14:09:29 10° S 14:20:06 18° SE 14:29:25 10° ESE daylight
24 Jul - 16:18:04 10° SW 16:33:58 36° SSE 16:45:17 10° E daylight
24 Jul - 18:32:32 10° WSW 18:47:47 46° S 18:57:05 10° ESE daylight
24 Jul - 20:49:02 10° W 21:00:16 36° SSW 21:07:04 10° SE daylight
24 Jul - 23:07:16 10° WSW 23:10:41 13° SW 23:13:31 10° SSW visible
25 Jul - 15:03:27 10° SSW 15:18:28 29° SSE 15:30:28 10° E daylight
25 Jul - 17:15:58 10° SW 17:32:38 44° S 17:43:36 10° ESE daylight
25 Jul - 19:31:57 10° WSW 19:46:05 45° S 19:54:30 10° ESE daylight
25 Jul - 21:49:05 10° W 21:57:36 25° SW 22:03:17 10° SSE visible
26 Jul - 13:50:27 10° S 14:03:02 21° SE 14:14:13 10° ESE daylight
26 Jul - 16:00:06 10° SW 16:17:06 40° SSE 16:29:31 10° E daylight
26 Jul - 18:14:55 10° WSW 18:31:15 49° S 18:41:23 10° ESE daylight
26 Jul - 20:31:45 10° W 20:43:57 37° SSW 20:51:24 10° SE daylight
26 Jul - 22:50:47 10° WSW 22:54:23 13° SW 22:57:24 10° SSW visible
